| time (UTC) | temp F | wind direction | speed MPH | gust MPH | rain 1hr in | rain 24hr in | rain mn in | humidity % | barometer mb |
| 20260504060201 | 53 | 359 | 2.0 | 3.0 | 0.00 | 0.00 | 0.00 | 41 | 1012.9 |
| 20260504050629 | 54 | 21 | 1.0 | 2.0 | 0.00 | 0.00 | 0.00 | 40 | 1012.0 |
| 20260504050126 | 54 | 38 | 1.0 | 1.0 | 0.00 | 0.00 | 0.00 | 39 | 1012.0 |
| 20260504045623 | 54 | 313 | 3.0 | 3.0 | 0.00 | 0.00 | 0.00 | 39 | 1011.9 |
| 20260504045118 | 55 | 207 | 2.0 | 3.0 | 0.00 | 0.00 | 0.00 | 39 | 1011.8 |
| 20260504044616 | 55 | 37 | 1.0 | 2.0 | 0.00 | 0.00 | 0.00 | 40 | 1011.5 |
| 20260504044113 | 56 | 274 | 2.0 | 4.0 | 0.00 | 0.00 | 0.00 | 40 | 1011.3 |
| 20260504043610 | 56 | 212 | 3.0 | 4.0 | 0.00 | 0.00 | 0.00 | 40 | 1011.3 |
| 20260504043107 | 56 | 346 | 3.0 | 4.0 | 0.00 | 0.00 | 0.00 | 40 | 1010.8 |
| 20260504042604 | 55 | 244 | 2.0 | 2.0 | 0.00 | 0.00 | 0.00 | 42 | 1010.6 |
| 20260504042101 | 55 | 324 | 1.0 | 1.0 | 0.00 | 0.00 | 0.00 | 42 | 1010.4 |
| 20260504041556 | 55 | 325 | 3.0 | 4.0 | 0.00 | 0.00 | 0.00 | 42 | 1010.5 |
| 20260504041053 | 56 | 328 | 3.0 | 3.0 | 0.00 | 0.00 | 0.00 | 42 | 1010.4 |
| 20260504040550 | 56 | 309 | 2.0 | 3.0 | 0.00 | 0.00 | 0.00 | 41 | 1010.1 |
| 20260504040047 | 57 | 329 | 2.0 | 3.0 | 0.00 | 0.00 | 0.00 | 41 | 1009.8 |
| 20260504035544 | 57 | 40 | 2.0 | 2.0 | 0.00 | 0.00 | 0.00 | 40 | 1009.9 |
| 20260504035040 | 57 | 294 | 2.0 | 2.0 | 0.00 | 0.00 | 0.00 | 40 | 1009.7 |
| 20260504034538 | 57 | 345 | 1.0 | 1.0 | 0.00 | 0.00 | 0.00 | 40 | 1009.5 |
| 20260504034035 | 58 | 315 | 1.0 | 2.0 | 0.00 | 0.00 | 0.00 | 40 | 1009.6 |
| 20260504033533 | 58 | 316 | 0.0 | 0.0 | 0.00 | 0.00 | 0.00 | 39 | 1009.6 |
| 20260504033030 | 59 | 288 | 0.0 | 1.0 | 0.00 | 0.00 | 0.00 | 39 | 1009.4 |
| 20260504032527 | 59 | 350 | 0.0 | 1.0 | 0.00 | 0.00 | 0.00 | 38 | 1009.3 |
| 20260504032024 | 59 | 169 | 0.0 | 1.0 | 0.00 | 0.00 | 0.00 | 38 | 1009.2 |
| 20260504031521 | 59 | 336 | 0.0 | 1.0 | 0.00 | 0.00 | 0.00 | 37 | 1009.2 |
| 20260504031016 | 60 | 236 | 1.0 | 1.0 | 0.00 | 0.00 | 0.00 | 37 | 1009.0 |
| 20260504030514 | 60 | 348 | 2.0 | 2.0 | 0.00 | 0.00 | 0.00 | 37 | 1009.1 |
| 20260504030010 | 60 | 351 | 1.0 | 1.0 | 0.00 | 0.00 | 0.00 | 36 | 1009.0 |
| 20260504025507 | 61 | 324 | 1.0 | 2.0 | 0.00 | 0.00 | 0.00 | 36 | 1009.0 |
| 20260504025004 | 61 | 302 | 0.0 | 1.0 | 0.00 | 0.00 | 0.00 | 36 | 1008.7 |
| 20260504024501 | 62 | 285 | 3.0 | 4.0 | 0.00 | 0.00 | 0.00 | 35 | 1008.7 |
| 20260504023958 | 62 | 159 | 1.0 | 1.0 | 0.00 | 0.00 | 0.00 | 34 | 1008.7 |
| 20260504023454 | 63 | 1 | 1.0 | 1.0 | 0.00 | 0.00 | 0.00 | 33 | 1008.7 |
| 20260504022950 | 63 | 300 | 0.0 | 0.0 | 0.00 | 0.00 | 0.00 | 33 | 1008.6 |
| 20260504022446 | 64 | 359 | 0.0 | 1.0 | 0.00 | 0.00 | 0.00 | 32 | 1008.7 |
| 20260504021943 | 65 | 275 | 0.0 | 1.0 | 0.00 | 0.00 | 0.00 | 31 | 1008.6 |
| 20260504021441 | 65 | 328 | 2.0 | 2.0 | 0.00 | 0.00 | 0.00 | 30 | 1008.5 |
| 20260504020938 | 66 | 336 | 1.0 | 1.0 | 0.00 | 0.00 | 0.00 | 29 | 1008.5 |
| 20260504020434 | 67 | 352 | 2.0 | 3.0 | 0.00 | 0.00 | 0.00 | 28 | 1008.5 |
| 20260504015931 | 67 | 349 | 3.0 | 3.0 | 0.00 | 0.00 | 0.00 | 26 | 1008.5 |
| 20260504015427 | 68 | 320 | 3.0 | 3.0 | 0.00 | 0.00 | 0.00 | 26 | 1008.5 |
| 20260504014923 | 68 | 336 | 5.0 | 6.0 | 0.00 | 0.00 | 0.00 | 25 | 1008.7 |
| 20260504014419 | 69 | 315 | 4.0 | 4.0 | 0.00 | 0.00 | 0.00 | 25 | 1008.5 |
| 20260504013916 | 69 | 315 | 4.0 | 4.0 | 0.00 | 0.00 | 0.00 | 25 | 1008.6 |
| 20260504013415 | 70 | 338 | 5.0 | 7.0 | 0.00 | 0.00 | 0.00 | 24 | 1008.6 |
| 20260504012910 | 71 | 323 | 3.0 | 3.0 | 0.00 | 0.00 | 0.00 | 24 | 1008.4 |
| 20260504012409 | 71 | 329 | 3.0 | 4.0 | 0.00 | 0.00 | 0.00 | 24 | 1008.5 |
| 20260504011905 | 71 | 346 | 4.0 | 4.0 | 0.00 | 0.00 | 0.00 | 23 | 1008.4 |
| 20260504011403 | 71 | 330 | 7.0 | 9.0 | 0.00 | 0.00 | 0.00 | 23 | 1008.6 |
| 20260504010858 | 72 | 332 | 6.0 | 7.0 | 0.00 | 0.00 | 0.00 | 23 | 1008.6 |
| 20260504010354 | 73 | 317 | 6.0 | 7.0 | 0.00 | 0.00 | 0.00 | 23 | 1008.6 |
| 20260504005851 | 73 | 315 | 4.0 | 4.0 | 0.00 | 0.00 | 0.00 | 23 | 1008.7 |
| 20260504005348 | 73 | 317 | 4.0 | 6.0 | 0.00 | 0.00 | 0.00 | 23 | 1008.7 |
| 20260504004845 | 73 | 334 | 4.0 | 4.0 | 0.00 | 0.00 | 0.00 | 23 | 1009.0 |
| 20260504004343 | 73 | 306 | 5.0 | 6.0 | 0.00 | 0.00 | 0.00 | 23 | 1009.0 |
| 20260504003839 | 74 | 335 | 3.0 | 3.0 | 0.00 | 0.00 | 0.00 | 23 | 1009.0 |
| 20260504003336 | 74 | 331 | 5.0 | 8.0 | 0.00 | 0.00 | 0.00 | 23 | 1009.0 |
| 20260504002833 | 74 | 335 | 5.0 | 6.0 | 0.00 | 0.00 | 0.00 | 23 | 1009.0 |
| 20260504002329 | 74 | 331 | 3.0 | 4.0 | 0.00 | 0.00 | 0.00 | 23 | 1009.1 |
| 20260504001827 | 73 | 321 | 8.0 | 9.0 | 0.00 | 0.00 | 0.00 | 23 | 1009.0 |
| 20260504001324 | 73 | 307 | 8.0 | 10.0 | 0.00 | 0.00 | 0.00 | 23 | 1009.2 |
| 20260504000821 | 73 | 339 | 6.0 | 7.0 | 0.00 | 0.00 | 0.00 | 23 | 1009.1 |
| 20260504000318 | 73 | 338 | 5.0 | 6.0 | 0.00 | 0.00 | 0.00 | 23 | 1009.3 |
| 20260503235816 | 75 | 328 | 4.0 | 6.0 | 0.00 | 0.00 | 0.00 | 23 | 1009.0 |
| 20260503235313 | 75 | 295 | 9.0 | 14.0 | 0.00 | 0.00 | 0.00 | 23 | 1009.2 |
| 20260503234810 | 75 | 328 | 5.0 | 7.0 | 0.00 | 0.00 | 0.00 | 23 | 1009.0 |
| 20260503234308 | 75 | 345 | 6.0 | 7.0 | 0.00 | 0.00 | 0.00 | 23 | 1009.2 |
| 20260503233806 | 75 | 337 | 5.0 | 7.0 | 0.00 | 0.00 | 0.00 | 23 | 1009.2 |
| 20260503233301 | 75 | 319 | 7.0 | 8.0 | 0.00 | 0.00 | 0.00 | 22 | 1009.2 |
| 20260503232758 | 75 | 343 | 8.0 | 9.0 | 0.00 | 0.00 | 0.00 | 22 | 1009.2 |
| 20260503232256 | 74 | 307 | 8.0 | 10.0 | 0.00 | 0.00 | 0.00 | 23 | 1009.2 |
| 20260503231753 | 74 | 354 | 7.0 | 8.0 | 0.00 | 0.00 | 0.00 | 23 | 1009.2 |
| 20260503231250 | 75 | 309 | 8.0 | 9.0 | 0.00 | 0.00 | 0.00 | 23 | 1009.2 |
| 20260503230746 | 75 | 329 | 8.0 | 9.0 | 0.00 | 0.00 | 0.00 | 23 | 1009.3 |
| 20260503230244 | 74 | 326 | 6.0 | 8.0 | 0.00 | 0.00 | 0.00 | 23 | 1009.2 |
| 20260503225741 | 75 | 315 | 11.0 | 15.0 | 0.00 | 0.00 | 0.00 | 22 | 1009.5 |
| 20260503225241 | 74 | 343 | 11.0 | 11.0 | 0.00 | 0.00 | 0.00 | 23 | 1009.5 |
| 20260503224738 | 75 | 320 | 12.0 | 14.0 | 0.00 | 0.00 | 0.00 | 23 | 1009.4 |
| 20260503224236 | 75 | 328 | 15.0 | 21.0 | 0.00 | 0.00 | 0.00 | 22 | 1009.3 |
| 20260503223733 | 76 | 337 | 8.0 | 13.0 | 0.00 | 0.00 | 0.00 | 22 | 1009.2 |
| 20260503223231 | 76 | 331 | 9.0 | 10.0 | 0.00 | 0.00 | 0.00 | 23 | 1009.5 |
| 20260503222727 | 77 | 280 | 8.0 | 10.0 | 0.00 | 0.00 | 0.00 | 23 | 1009.6 |
| 20260503222225 | 76 | 342 | 6.0 | 8.0 | 0.00 | 0.00 | 0.00 | 24 | 1009.5 |
| 20260503221723 | 76 | 331 | 8.0 | 9.0 | 0.00 | 0.00 | 0.00 | 23 | 1009.7 |
| 20260503221220 | 75 | 299 | 4.0 | 4.0 | 0.00 | 0.00 | 0.00 | 23 | 1009.7 |
| 20260503220717 | 76 | 227 | 11.0 | 13.0 | 0.00 | 0.00 | 0.00 | 22 | 1009.8 |
| 20260503220214 | 76 | 347 | 7.0 | 9.0 | 0.00 | 0.00 | 0.00 | 23 | 1010.1 |
| 20260503215710 | 74 | 314 | 6.0 | 7.0 | 0.00 | 0.00 | 0.00 | 24 | 1009.7 |
| 20260503215208 | 75 | 335 | 9.0 | 10.0 | 0.00 | 0.00 | 0.00 | 23 | 1009.9 |
| 20260503214706 | 75 | 307 | 10.0 | 11.0 | 0.00 | 0.00 | 0.00 | 23 | 1009.9 |
| 20260503214202 | 75 | 307 | 8.0 | 10.0 | 0.00 | 0.00 | 0.00 | 24 | 1009.9 |
| 20260503213701 | 75 | 308 | 4.0 | 6.0 | 0.00 | 0.00 | 0.00 | 23 | 1010.2 |
| 20260503213157 | 75 | 306 | 11.0 | 13.0 | 0.00 | 0.00 | 0.00 | 23 | 1010.2 |
| 20260503212654 | 75 | 348 | 4.0 | 6.0 | 0.00 | 0.00 | 0.00 | 24 | 1010.2 |
| 20260503212152 | 75 | 321 | 13.0 | 17.0 | 0.00 | 0.00 | 0.00 | 23 | 1010.4 |
| 20260503211649 | 74 | 329 | 6.0 | 6.0 | 0.00 | 0.00 | 0.00 | 23 | 1010.3 |
| 20260503211144 | 75 | 341 | 11.0 | 13.0 | 0.00 | 0.00 | 0.00 | 23 | 1010.5 |
| 20260503210641 | 74 | 323 | 8.0 | 9.0 | 0.00 | 0.00 | 0.00 | 23 | 1010.7 |
| 20260503210138 | 74 | 318 | 13.0 | 17.0 | 0.00 | 0.00 | 0.00 | 23 | 1010.6 |
| 20260503205633 | 75 | 294 | 5.0 | 6.0 | 0.00 | 0.00 | 0.00 | 24 | 1011.0 |
| 20260503205130 | 74 | 326 | 6.0 | 7.0 | 0.00 | 0.00 | 0.00 | 23 | 1010.7 |
| 20260503204627 | 73 | 284 | 4.0 | 7.0 | 0.00 | 0.00 | 0.00 | 24 | 1010.7 |
| 20260503204125 | 74 | 335 | 10.0 | 11.0 | 0.00 | 0.00 | 0.00 | 23 | 1010.7 |
| 20260503203621 | 73 | 347 | 10.0 | 11.0 | 0.00 | 0.00 | 0.00 | 24 | 1010.9 |
| 20260503203119 | 73 | 293 | 3.0 | 4.0 | 0.00 | 0.00 | 0.00 | 24 | 1010.8 |
| 20260503202616 | 74 | 283 | 5.0 | 6.0 | 0.00 | 0.00 | 0.00 | 24 | 1010.9 |
| 20260503202114 | 72 | 313 | 9.0 | 13.0 | 0.00 | 0.00 | 0.00 | 24 | 1011.0 |
| 20260503201612 | 72 | 330 | 6.0 | 8.0 | 0.00 | 0.00 | 0.00 | 23 | 1011.3 |
| 20260503201109 | 74 | 327 | 10.0 | 14.0 | 0.00 | 0.00 | 0.00 | 22 | 1011.3 |
| 20260503200605 | 73 | 276 | 5.0 | 8.0 | 0.00 | 0.00 | 0.00 | 24 | 1011.0 |
| 20260503195559 | 74 | 342 | 4.0 | 4.0 | 0.00 | 0.00 | 0.00 | 22 | 1011.5 |
| 20260503195055 | 74 | 299 | 9.0 | 10.0 | 0.00 | 0.00 | 0.00 | 23 | 1011.5 |
| 20260503194553 | 74 | 337 | 5.0 | 6.0 | 0.00 | 0.00 | 0.00 | 22 | 1011.5 |
| 20260503194052 | 74 | 302 | 10.0 | 13.0 | 0.00 | 0.00 | 0.00 | 22 | 1011.7 |
| 20260503193544 | 73 | 329 | 4.0 | 4.0 | 0.00 | 0.00 | 0.00 | 22 | 1011.6 |
| 20260503193039 | 72 | 261 | 10.0 | 16.0 | 0.00 | 0.00 | 0.00 | 22 | 1011.7 |
| 20260503192535 | 70 | 311 | 10.0 | 11.0 | 0.00 | 0.00 | 0.00 | 23 | 1011.7 |
| 20260503192031 | 71 | 315 | 4.0 | 4.0 | 0.00 | 0.00 | 0.00 | 24 | 1011.7 |
| 20260503191528 | 72 | 329 | 10.0 | 11.0 | 0.00 | 0.00 | 0.00 | 21 | 1011.8 |
| 20260503191025 | 72 | 270 | 9.0 | 10.0 | 0.00 | 0.00 | 0.00 | 22 | 1011.9 |
| 20260503190522 | 72 | 333 | 11.0 | 15.0 | 0.00 | 0.00 | 0.00 | 23 | 1011.8 |
| 20260503190019 | 72 | 290 | 8.0 | 11.0 | 0.00 | 0.00 | 0.00 | 22 | 1011.9 |
| 20260503185515 | 72 | 285 | 4.0 | 4.0 | 0.00 | 0.00 | 0.00 | 23 | 1012.0 |
| 20260503185015 | 71 | 316 | 11.0 | 13.0 | 0.00 | 0.00 | 0.00 | 23 | 1011.9 |
| 20260503184511 | 73 | 329 | 10.0 | 10.0 | 0.00 | 0.00 | 0.00 | 23 | 1012.2 |
| 20260503184008 | 72 | 358 | 13.0 | 19.0 | 0.00 | 0.00 | 0.00 | 23 | 1012.4 |
| 20260503183504 | 70 | 0 | 7.0 | 9.0 | 0.00 | 0.00 | 0.00 | 24 | 1012.3 |
| 20260503183001 | 72 | 307 | 11.0 | 15.0 | 0.00 | 0.00 | 0.00 | 23 | 1012.2 |
| 20260503182500 | 72 | 238 | 11.0 | 15.0 | 0.00 | 0.00 | 0.00 | 23 | 1012.3 |
| 20260503181957 | 71 | 301 | 7.0 | 8.0 | 0.00 | 0.00 | 0.00 | 24 | 1012.5 |
| 20260503181454 | 72 | 278 | 7.0 | 9.0 | 0.00 | 0.00 | 0.00 | 23 | 1012.6 |
| 20260503180950 | 71 | 305 | 6.0 | 8.0 | 0.00 | 0.00 | 0.00 | 23 | 1012.6 |
| 20260503180449 | 71 | 314 | 8.0 | 9.0 | 0.00 | 0.00 | 0.00 | 23 | 1012.6 |
| 20260503175945 | 73 | 340 | 7.0 | 9.0 | 0.00 | 0.00 | 0.00 | 23 | 1012.7 |
| 20260503175443 | 71 | 295 | 9.0 | 10.0 | 0.00 | 0.00 | 0.00 | 24 | 1012.8 |
| 20260503174939 | 71 | 301 | 6.0 | 8.0 | 0.00 | 0.00 | 0.00 | 25 | 1012.9 |
| 20260503174438 | 73 | 311 | 9.0 | 9.0 | 0.00 | 0.00 | 0.00 | 24 | 1012.7 |
| 20260503173937 | 71 | 332 | 6.0 | 8.0 | 0.00 | 0.00 | 0.00 | 25 | 1012.8 |
| 20260503173434 | 71 | 312 | 9.0 | 10.0 | 0.00 | 0.00 | 0.00 | 25 | 1013.0 |
| 20260503172931 | 71 | 333 | 10.0 | 15.0 | 0.00 | 0.00 | 0.00 | 25 | 1013.1 |
| 20260503172428 | 70 | 298 | 5.0 | 6.0 | 0.00 | 0.00 | 0.00 | 26 | 1012.9 |
| 20260503171924 | 70 | 302 | 8.0 | 8.0 | 0.00 | 0.00 | 0.00 | 26 | 1012.8 |
| 20260503171421 | 70 | 347 | 11.0 | 16.0 | 0.00 | 0.00 | 0.00 | 25 | 1013.1 |
| 20260503170919 | 71 | 276 | 9.0 | 13.0 | 0.00 | 0.00 | 0.00 | 25 | 1013.1 |
| 20260503170415 | 71 | 311 | 9.0 | 11.0 | 0.00 | 0.00 | 0.00 | 25 | 1013.4 |
| 20260503150807 | 60 | 332 | 4.0 | 6.0 | 0.00 | 0.00 | 0.00 | 47 | 1013.7 |
| 20260503150303 | 60 | 339 | 6.0 | 8.0 | 0.00 | 0.00 | 0.00 | 48 | 1013.9 |
| 20260503140228 | 55 | 289 | 4.0 | 6.0 | 0.00 | 0.00 | 0.00 | 58 | 1014.0 |
| 20260503131157 | 45 | 276 | 2.0 | 2.0 | 0.00 | 0.00 | 0.00 | 77 | 1013.9 |
| 20260503130654 | 44 | 299 | 1.0 | 1.0 | 0.00 | 0.00 | 0.00 | 79 | 1014.1 |
| 20260503130152 | 44 | 285 | 2.0 | 3.0 | 0.00 | 0.00 | 0.00 | 78 | 1014.1 |
| 20260503120117 | 41 | 302 | 2.0 | 2.0 | 0.00 | 0.00 | 0.00 | 81 | 1014.5 |
| 20260503110544 | 42 | 284 | 2.0 | 2.0 | 0.00 | 0.00 | 0.00 | 79 | 1014.8 |
| 20260503090431 | 42 | 279 | 1.0 | 2.0 | 0.00 | 0.00 | 0.00 | 74 | 1015.7 |
| 20260503081358 | 44 | 285 | 0.0 | 0.0 | 0.00 | 0.00 | 0.00 | 71 | 1016.0 |
| 20260503080855 | 45 | 327 | 1.0 | 1.0 | 0.00 | 0.00 | 0.00 | 70 | 1016.1 |
| 20260503080352 | 45 | 309 | 0.0 | 0.0 | 0.00 | 0.00 | 0.00 | 69 | 1016.1 |
| 20260503072828 | 46 | 296 | 0.0 | 0.0 | 0.00 | 0.00 | 0.00 | 67 | 1016.3 |
| 20260503072325 | 46 | 295 | 0.0 | 0.0 | 0.00 | 0.00 | 0.00 | 67 | 1016.3 |
| 20260503071821 | 46 | 304 | 0.0 | 0.0 | 0.00 | 0.00 | 0.00 | 67 | 1016.3 |
| 20260503071319 | 46 | 306 | 0.0 | 0.0 | 0.00 | 0.00 | 0.00 | 66 | 1016.6 |
| 20260503070816 | 46 | 300 | 1.0 | 1.0 | 0.00 | 0.00 | 0.00 | 65 | 1016.3 |
| 20260503070314 | 47 | 306 | 1.0 | 1.0 | 0.00 | 0.00 | 0.00 | 64 | 1016.6 |